Home > Weather > Neenah > Past weeks

Flag for USA Past Weather in Neenah, Wisconsin, USA — Yesterday and Last 2 Weeks

Now
61 °F

Light rain. Mostly cloudy.


Feels Like: 61 °F
Forecast: 62 / 69 °F
Wind: 7 mph from East

Location: Appleton / Outagamie

Current Time: Aug 27, 2016 at 10:22:17 AM

Latest Report: Aug 27, 2016 at 9:45 AM


Visibility: 7 mi

Pressure: 30.11 "Hg

Humidity: 100%

Dew Point: 61 °F

Location of NeenahLocation

Past Weather in Neenah — Graph

°F

Neenah Temperature Yesterday

Maximum temperature yesterday: 72 °F (at 12:45 PM)
Minimum temperature yesterday: 55 °F (at 2:55 AM)
Average temperature yesterday: 62 °F

High & Low Weather Summary for the Past Weeks

 TemperatureHumidityPressure
High86 °F (Aug 18, 2:45 PM)100% (Aug 13, 3:35 AM)30.17 "Hg (Aug 13, 3:35 AM)
Low52 °F (Aug 22, 3:55 AM)39% (Aug 15, 1:45 PM)29.53 "Hg (Aug 20, 1:45 PM)
Average68 °F80%29.96 "Hg
* Reported Aug 12 9:45 AM — Aug 27 8:45 AM, Neenah, Weather by CustomWeather, © 2016

Note: Actual official high and low records may vary slightly from our data, if they occured in-between our weather recording intervals... More about our weather records

Advertising

Neenah Weather History for the Previous 24 Hours

Scroll right to see more
 ConditionsComfort  
Time TempWeatherWind HumidityBarometerVisibility
8:45 AM
Sat, Aug 27
61 °FLight rain. Mostly cloudy.6 mph100%30.12 "Hg7 mi
7:45 AM63 °FLight rain. Mostly cloudy.6 mph94%30.14 "Hg7 mi
6:45 AM63 °FLight rain. Mostly cloudy.6 mph94%30.12 "Hg7 mi
5:45 AM63 °FMostly cloudy.7 mph83%30.11 "Hg10 mi
5:15 AM61 °FRain. Passing clouds.6 mph88%30.11 "Hg10 mi
4:55 AM63 °FRain. Partly cloudy.5 mph77%30.12 "Hg10 mi
4:35 AM61 °FLight rain. Passing clouds.3 mph83%30.13 "Hg10 mi
4:15 AM63 °FLight rain. Partly cloudy.5 mph77%30.13 "Hg10 mi
3:55 AM63 °FRain. Overcast.3 mph73%30.14 "Hg10 mi
3:15 AM63 °FOvercast.3 mph73%30.13 "Hg10 mi
2:55 AM64 °FOvercast.No wind64%30.14 "Hg10 mi
2:35 AM63 °FOvercast.5 mph73%30.12 "Hg10 mi
2:15 AM63 °FMostly cloudy.7 mph73%30.12 "Hg10 mi
1:55 AM63 °FLight rain. Mostly cloudy.5 mph73%30.12 "Hg10 mi
1:35 AM64 °FOvercast.No wind68%30.14 "Hg10 mi
1:15 AM64 °FOvercast.3 mph64%30.14 "Hg10 mi
12:55 AM64 °FOvercast.No wind64%30.15 "Hg10 mi
12:35 AM64 °FOvercast.No wind68%30.14 "Hg10 mi
12:15 AM64 °FMostly cloudy.No wind68%30.14 "Hg10 mi
11:55 PM
Fri, Aug 26
64 °FMostly cloudy.No wind64%30.14 "Hg10 mi
11:35 PM63 °FMostly cloudy.No wind73%30.14 "Hg10 mi
11:15 PM63 °FPartly cloudy.No wind73%30.15 "Hg10 mi
10:45 PM64 °FOvercast.No wind68%30.15 "Hg10 mi
9:45 PM66 °FOvercast.No wind68%30.16 "Hg10 mi
8:45 PM66 °FPassing clouds.No wind64%30.15 "Hg10 mi
7:45 PM66 °FPartly sunny.3 mph64%30.14 "Hg10 mi
6:45 PM68 °FBroken clouds.No wind60%30.14 "Hg10 mi
5:45 PM70 °FBroken clouds.5 mph53%30.15 "Hg10 mi
4:45 PM72 °FBroken clouds.6 mph50%30.14 "Hg10 mi
3:45 PM72 °FBroken clouds.6 mph44%30.14 "Hg10 mi
2:45 PM72 °FBroken clouds.8 mph50%30.14 "Hg10 mi
1:45 PM72 °FBroken clouds.8 mph44%30.15 "Hg10 mi
12:45 PM72 °FBroken clouds.6 mph50%30.15 "Hg10 mi
11:45 AM68 °FBroken clouds.7 mph60%30.16 "Hg10 mi
10:45 AM66 °FBroken clouds.7 mph64%30.17 "Hg10 mi
Weather by CustomWeather, © 2016

See weather overviewHow to use our weather pages